Weather History for Annette Island, AK

Change the Weather History Date:

Wednesday, November 21, 2012

  Actual Average Record
Temperature  
Mean Temperature 38 °F 39 °F  
Max Temperature 40 °F 44 °F 55 °F (1949)
Min Temperature 35 °F 35 °F 10 °F (1963)
Degree Days  
Heating Degree Days 27 26  
Month to date heating degree days 495 511  
Since 1 July heating degree days 1923 1811  
Cooling Degree Days 0    
Month to date cooling degree days 0  
Year to date cooling degree days 7  
Moisture  
Dew Point 34 °F    
Average Humidity 0    
Maximum Humidity 0    
Minimum Humidity 0    
Precipitation  
Precipitation 0.09 in 0.39 in 4.19 in (1957)
Month to date precipitation 9.36 8.85  
Year to date precipitation 91.98 87.47  
Snow  
Snow 0.00 in 0.10 in 2.40 in (1974)
Month to date snowfall 0.0 2.0  
Since 1 July snowfall T 2.1  
Since 1 September snowfall 0.0 2.1  
Snow Depth 0.00 in    
Sea Level Pressure  
Sea Level Pressure 29.66 in    
Wind  
Wind Speed 3 mph (ESE)    
Max Wind Speed 12 mph    
Max Gust Speed 15 mph    
Visibility 10 miles    
Events Rain    
T = Trace of Precipitation, MM = Missing Value Source: NWS Daily Summary

Daily Weather History Graph

Daily Weather History Graph

Search for Another Location

Airport:

Trip Planner

Search our weather history database for the weather conditions in past years. The results will help you decide how hot, cold, wet, or windy it might be!

Date:

Astronomy

Nov. 21, 2012 Rise Set
Actual Time 7:31 AM AKST 3:32 PM AKST
Civil Twilight 6:49 AM AKST 4:15 PM AKST
Nautical Twilight 6:03 AM AKST 5:00 PM AKST
Astronomical Twilight 5:20 AM AKST 5:43 PM AKST
Moon 12:48 PM AKST (11/21) No Moon Set
Length of Visible Light 9h 25m
Length of Day
8h 01m
Waxing Gibbous, 63% of the Moon is Illuminated
Nov 21
Waxing Gibbous
Nov 28
Full
Dec 6
Last Quarter
Dec 12
New
Dec 19
First Quarter

Hourly Weather History & Observations

Time (AKST) Temp. Windchill Dew Point Humidity Pressure Visibility Wind Dir Wind Speed Gust Speed Precip Events Conditions
12:53 AM 37.0 °F - 34.0 °F 89% 29.43 in 10.0 mi Calm Calm - 0.01 in Rain Light Rain
1:11 AM 37.4 °F - 33.8 °F 87% 29.43 in 10.0 mi Calm Calm - 0.00 in Rain Light Rain
1:53 AM 37.0 °F - 34.0 °F 89% 29.45 in 10.0 mi Calm Calm - 0.00 in   Overcast
2:00 AM 37.4 °F - 35.6 °F 93% 29.44 in 10.0 mi Calm Calm - N/A   Overcast
2:08 AM 37.4 °F - 33.8 °F 87% 29.45 in 10.0 mi Calm Calm - N/A   Overcast
2:29 AM 37.4 °F - 33.8 °F 87% 29.45 in 10.0 mi Calm Calm - 0.00 in Rain Light Rain
2:44 AM 37.4 °F 33.8 °F 33.8 °F 87% 29.46 in 10.0 mi SE 4.6 mph - 0.00 in Rain Light Rain
2:53 AM 37.9 °F 34.4 °F 34.0 °F 86% 29.46 in 10.0 mi ESE 4.6 mph - 0.00 in   Overcast
3:13 AM 37.4 °F - 33.8 °F 87% 29.46 in 10.0 mi Calm Calm - N/A   Overcast
3:53 AM 37.0 °F - 34.0 °F 89% 29.49 in 10.0 mi Calm Calm - 0.00 in Rain Light Rain
4:01 AM 37.4 °F - 33.8 °F 87% 29.48 in 10.0 mi Calm Calm - 0.01 in Rain Light Rain
4:53 AM 36.0 °F - 34.0 °F 93% 29.51 in 10.0 mi Calm Calm - 0.06 in Rain Light Rain
5:53 AM 35.1 °F - 34.0 °F 96% 29.52 in 10.0 mi Calm Calm - 0.01 in   Overcast
6:53 AM 35.1 °F - 34.0 °F 96% 29.55 in 10.0 mi Calm Calm - 0.01 in   Overcast
7:53 AM 36.0 °F - 35.1 °F 97% 29.58 in 10.0 mi Calm Calm - 0.00 in   Overcast
8:53 AM 37.0 °F - 35.1 °F 93% 29.61 in 10.0 mi Calm Calm - 0.00 in   Overcast
9:19 AM 37.4 °F - 35.6 °F 93% 29.62 in 10.0 mi Calm Calm - N/A   Overcast
9:46 AM 39.2 °F 37.0 °F 33.8 °F 81% 29.63 in 10.0 mi ESE 3.5 mph - N/A   Overcast
9:53 AM 39.0 °F - 34.0 °F 82% 29.64 in 10.0 mi Calm Calm - N/A   Overcast
10:53 AM 39.0 °F 36.8 °F 34.0 °F 82% 29.67 in 10.0 mi ESE 3.5 mph - N/A   Overcast
11:53 AM 39.0 °F 34.8 °F 34.0 °F 82% 29.70 in 10.0 mi ESE 5.8 mph - 0.00 in   Overcast
12:07 PM 39.2 °F 33.0 °F 33.8 °F 81% 29.69 in 10.0 mi ESE 9.2 mph - N/A   Overcast
12:53 PM 39.9 °F 33.9 °F 34.0 °F 79% 29.72 in 10.0 mi ESE 9.2 mph - 0.00 in   Overcast
1:53 PM 39.0 °F 32.3 °F 34.0 °F 82% 29.75 in 10.0 mi ESE 10.4 mph - N/A   Overcast
2:53 PM 39.0 °F 34.0 °F 34.0 °F 82% 29.78 in 10.0 mi East 6.9 mph - 0.00 in   Overcast
3:53 PM 37.9 °F 31.5 °F 34.0 °F 86% 29.81 in 10.0 mi SE 9.2 mph - N/A   Overcast
4:33 PM 37.4 °F 32.1 °F 35.6 °F 93% 29.82 in 10.0 mi ESE 6.9 mph - N/A   Overcast
4:53 PM 37.9 °F 33.5 °F 34.0 °F 86% 29.83 in 10.0 mi ESE 5.8 mph - N/A   Overcast
5:53 PM 37.9 °F 32.1 °F 34.0 °F 86% 29.86 in 10.0 mi ESE 8.1 mph - 0.00 in   Scattered Clouds
6:53 PM 39.0 °F 32.3 °F 34.0 °F 82% 29.88 in 10.0 mi ESE 10.4 mph - 0.00 in Rain Light Rain
7:28 PM 37.4 °F 30.3 °F 35.6 °F 93% 29.89 in 9.0 mi East 10.4 mph 16.1 mph 0.01 in Rain Light Rain
7:53 PM 37.9 °F 29.6 °F 34.0 °F 86% 29.90 in 10.0 mi ESE 13.8 mph 19.6 mph 0.01 in   Mostly Cloudy
8:48 PM 37.4 °F 30.3 °F 33.8 °F 87% 29.91 in 10.0 mi ESE 10.4 mph - N/A   Mostly Cloudy
8:53 PM 37.9 °F 30.9 °F 34.0 °F 86% 29.92 in 10.0 mi ESE 10.4 mph - N/A   Mostly Cloudy
9:53 PM 39.9 °F 33.4 °F 34.0 °F 79% 29.92 in 10.0 mi ESE 10.4 mph 20.7 mph N/A   Mostly Cloudy
10:53 PM 41.0 °F 33.1 °F 33.1 °F 73% 29.93 in 10.0 mi ESE 15.0 mph 23.0 mph 0.00 in   Overcast
11:53 PM 39.9 °F 31.8 °F 33.1 °F 77% 29.92 in 10.0 mi ESE 15.0 mph 26.5 mph 0.00 in   Partly Cloudy